Powrót do katalogu

COSMOS 1371

AktywnyNawigacjaLEO
NORAD 13241·PAYLOAD·🇷🇺 Russia

Wystrzelony Jun 1, 1982 z Plesetsk Cosmodrome

Loading…

Następne Przeloty (najbliższe 24 godziny)

TLE

ŚwieżeSource: Space-Track

Epoka: Sep 14, 2026, 12:32 UTC

1 13241U 82051A   26257.52271657  .00000053  00000-0  29180-4 0  9996
2 13241  74.0408  84.4361 0013004 170.2010 189.9397 14.32632119312241

Śledź COSMOS 1371 w czasie rzeczywistym z AllMySat

Download on the App Store